www.pogodaiklimat.ru
ПОГОДА в Дэвис округ Йоло
Время
и дата
16:35 20.07
16:55 20.07
17:15 20.07
17:35 20.07
17:55 20.07
18:15 20.07
18:35 20.07
18:55 20.07
19:15 20.07
19:35 20.07
19:55 20.07
20:15 20.07
20:35 20.07
20:55 20.07
21:15 20.07
21:35 20.07
21:55 20.07
22:15 20.07
22:35 20.07
22:55 20.07
23:15 20.07
23:35 20.07
23:55 20.07
00:15 21.07
00:35 21.07
00:55 21.07
01:15 21.07
01:35 21.07
01:55 21.07
02:15 21.07
02:35 21.07
02:55 21.07
03:15 21.07
03:35 21.07
03:55 21.07
04:15 21.07
04:35 21.07
04:55 21.07
05:15 21.07
05:35 21.07
05:55 21.07
06:15 21.07
06:35 21.07
06:55 21.07
07:15 21.07
07:35 21.07
07:55 21.07
08:15 21.07
Ветер
(напр.,м/с)
Видим. Явления Облачность Т
(С)
Тd
(С)
f
(%)
Тe
(С)
Тes
(С)
Комфортность P
(гПа)
Po
(гПа)
Тmin
(С)
Tmax
(С)
R
(мм)
R24
(мм)
S
(см)
З 5 16 км ясно +40.0 +10.0 17 +39 +43 очень
жарко
1005.3
З 4 16 км ясно +40.0 +10.0 17 +39 +44 очень
жарко
1005.0
ЮЗ 3 16 км ясно +40.0 +11.0 18 +39 +42 очень
жарко
1005.0
ЮЗ 3 16 км ясно +39.0 +11.0 19 +38 +41 очень
жарко
1005.0
Ю 3 16 км ясно +38.0 +13.0 23 +38 +42 очень
жарко
1005.3
Ю 4 16 км ясно +34.0 +16.0 34 +36 +37 душно 1005.3
Ю 4 16 км ясно +32.0 +16.0 38 +35 +36 очень
душно
1005.7
Ю 3 16 км ясно 1005.7
Ю 3 16 км ясно +29.0 +15.0 43 +32 +32 душно 1006.0
Ю 4 16 км ясно +28.0 +15.0 45 +31 +31 душно 1006.0
Ю 4 16 км ясно +27.0 +14.0 45 +29 +29 жарко 1006.0
Ю 3 16 км ясно +27.0 +14.0 45 +29 +29 жарко 1006.0
Ю 3 16 км ясно +26.0 +14.0 48 +28 +28 жарко 1006.4
ЮВ 2 16 км ясно +25.0 +14.0 50 +27 +27 жарко 1006.4
ЮВ 3 16 км ясно +24.0 +13.0 50 +26 +26 жарко 1006.4
штиль 0 16 км ясно +24.0 +13.0 50 +26 +26 жарко 1006.7
ЮВ 2 16 км ясно +23.0 +13.0 53 +26 +26 жарко 1006.4
штиль 0 16 км ясно +23.0 +13.0 53 +26 +26 жарко 1006.7
штиль 0 16 км 2/0 2250 m
[Ac]
+22.0 +13.0 57 +25 +25 комфорт 1006.7
штиль 0 16 км 2/0 2250 m
[Ac]
+22.0 +13.0 57 +25 +25 комфорт 1006.7
штиль 0 16 км 2/0 2250 m
[Ac]
+21.0 +13.0 60 +23 +23 комфорт 1007.0
штиль 0 16 км 2/2 1950 m
[Ac]
+20.0 +13.0 64 +22 +22 комфорт 1007.0
штиль 0 16 км н/о 1006.7
штиль 0 16 км 2/0 2250 m
[Ac]
+20.0 +13.0 64 +22 +22 комфорт 1006.7
штиль 0 16 км н/о +19.0 +13.0 68 +20 +20 1006.7
штиль 0 16 км 2/0 2100 m
[Ac]
+19.0 +13.0 68 +20 +20 1006.7
штиль 0 16 км 2/2 1800 m
[Ac]
+19.0 +13.0 68 +20 +20 1006.7
штиль 0 16 км 8/8 1800 м +18.0 +13.0 73 +18 +18 1007.0
штиль 0 16 км н/о +18.0 +13.0 73 +18 +18 1006.7
штиль 0 16 км 5/5 1800 м +18.0 +13.0 73 +18 +18 1006.7
штиль 0 16 км 5/5 1800 м +18.0 +13.0 73 +18 +18 1007.0
штиль 0 16 км 2/2 1650 м +17.0 +13.0 77 +17 +17 1007.0
штиль 0 16 км ясно +17.0 +13.0 77 +17 +17 1007.0
штиль 0 16 км ясно +17.0 +13.0 77 +17 +17 1007.4
штиль 0 16 км ясно +17.0 +13.0 77 +17 +17 1007.4
штиль 0 16 км ясно +17.0 +13.0 77 +17 +17 1007.4
штиль 0 16 км ясно +16.0 +13.0 82 +16 +16 1007.4
штиль 0 16 км ясно +16.0 +13.0 82 +16 +16 1007.7
штиль 0 16 км ясно +16.0 +13.0 82 +16 +16 1007.7
штиль 0 16 км ясно +16.0 +13.0 82 +16 +16 1007.7
штиль 0 16 км ясно +17.0 +13.0 77 +17 +17 1008.0
штиль 0 16 км ясно +17.0 +13.0 77 +17 +18 1008.0
штиль 0 16 км ясно +18.0 +13.0 73 +18 +19 1008.4
штиль 0 16 км ясно +19.0 +13.0 68 +20 +21 1008.7
штиль 0 16 км ясно +19.0 +14.0 73 +20 +24 1008.7
штиль 0 16 км ясно +20.0 +14.0 68 +22 +26 комфорт 1009.1
штиль 0 16 км ясно +21.0 +14.0 64 +24 +28 комфорт 1009.1
штиль 0 16 км ясно +22.0 +14.0 60 +25 +35 комфорт 1009.1
Местоположение метеостанции Yolo County Airport: широта 38.5794 долгота -121.8569 высота над уровнем моря 28 м.
В архиве по умолчанию представлена погода в Дэвис округ Йоло за последние 1-2 суток. Обновление информации о фактической погоде в базе происходит ежечасно! Архивные данные за месяц целиком и за предыдущие месяцы Вы можете получить, выбрав интересующий диапазон дат из раскрывающегося списка и нажав кнопку "Ввод!".
Внимание! Архив погоды МЕТАР в базе сайта по станциям, не включенным в климатический монитор, хранится не более 60 дней. Нет смысла пытаться выбрать более раннюю дату.
*Определитесь, кто Вы:
Внимание! Время в таблицах - местное (без учета летнего времени). Для получения всемирного времени необходимо вычесть поправку, которая равна -8 ч.
Смотрите также архив погоды в соседних городах и на ближайших метеорологических станциях:
Партнеры нашего сайта:      
Пояснения к столбцам:
  • Ветер - указаны скорость ветра в м/с - средняя за 10 мин, порывы в срок и между сроками (в фигурных скобках) и направление, откуда дует ветер: С - северный,
  • СВ - северо-восточный, В - восточный, ЮВ - юго-восточный, Ю - южный, ЮЗ - юго-западный, З - западный, СЗ - северо-западный.
  • Видимость - горизонтальная дальность видимости в метрах или километрах. При видимости от 1 до 10 км при отсутствии осадков обычно наблюдается дымка, при ухудшении видимости до 1 км и менее - туман. В сухую погоду видимость может ухудшаться дымом, пылью или мглою.
  • Явления - указаны атмосферные явления, наблюдавшиеся в срок или в последний час перед сроком; фигурными скобками обозначены явления, наблюдавшиеся между сроками (за 1-3 часа до срока); квадратными скобками обозначены град или гололедные отложения с указанием их диаметра в мм.
  • Облачность - указаны через наклонную черту общая и нижняя облачность в баллах и высота нижней границы облаков в метрах; квадратными скобками обозначены формы облаков: Ci - перистые, Cs - перисто-слоистые, Cc - перисто-кучевые, Ac - высококучевые, As - высокослоистые, Sc - слоисто-кучевые, Ns - слоисто-дождевые, Cu - кучевые, Cb - кучево-дождевые. Подробнее классификацию облаков см. в Атласе облаков (PDF).
  • T - Температура воздуха - температура, измеренная на высоте 2 м над землей.
  • Td - Температура точки росы - температура, при понижении до которой содержащийся в воздухе водяной пар достигнет насыщения.
  • f - Относительная влажность воздуха - влажноcть воздуха, измеренная на высоте 2 м над землей.
  • Te - Эффективная температура - температура, которую ощущает одетый по сезону человек в тени. Характеристика душности погоды. При расчете учитывается влияние влажности воздуха и скорости ветра на теплоощущения человека.
  • Tes - Эффективная температура на солнце - температура, которую ощущает человек, с поправкой на солнечный нагрев. Характеристика знойности погоды. Зависит от высоты солнца над горизонтом, облачности и скорости ветра. Ночью, в пасмурную погоду, а также при ветре 12 м/с и более поправка равна нулю.
  • P - Атмосферное давление - приведенное к уровню моря атмосферное давление.
  • Po - Атмосферное давление - измеренное на уровне метеостанции атмосферное давление.
  • Tmin - Минимальная температура - минимум температуры воздуха на высоте 2 м над землей.
  • Tmax - Максимальная температура - максимум температуры воздуха на высоте 2 м над землей.
  • R - Количество осадков - Количество выпавших осадков за период времени, мм. При наведении курсора мыши на число - период времени, за который выпало указанное количество осадков.
  • R24 - Количество осадков - Количество выпавших осадков за 24 часа, мм.
  • S - Снежный покров - Высота снежного покрова, см. При наведении курсора мыши на число - состояние снежного покрова и степень покрытия местности в баллах.